Weather in Kohat

Pakistan     33°35′29″N   71°26′49″E
temp.,
°C
wind,
m/s
gust,
m/s
humid.,
%
clouds,
%
prec.,
mm/h
press.,
hPa
HPBL,
m
26 february, fri
fri2623:00+19n224998 0.0 101024
02:00+17n1158100 0.0 100823
05:00+16nne115998 0.0 100623
08:00+18ese2258100 0.0 1008108
11:00+24s5830100 0.0 10062149
14:00+26ssw8102448 0.0 10032417
17:00+25sse672424 0.0 10011044
20:00+17n713560 0.0 1002325
27 february, sat
sat2723:00+16n49640 0.0 1003266
02:00+14n23720 0.0 100236
05:00+13nnw12770 0.0 100223
08:00+16nnw11590 0.0 100461
11:00+22n24250 0.0 10051263
14:00+24nne12200 0.0 10032215
17:00+21n443312 0.0 1003436
20:00+16nw114529 0.1 100523
28 february, sun
sun2823:00+15nw114414 0.1 100723
02:00+14n22280 0.0 100823
05:00+13n23190 0.0 100823
08:00+15n22210 0.0 101140
11:00+22nne24130 0.0 1012673
14:00+24nne54150 0.0 10111660
17:00+23nne34170 0.0 1009961
20:00+16n22230 0.0 101123
1 march, mon
mon123:00+15nnw23240 0.0 101223
02:00+14nw23240 0.0 101223
05:00+12nnw12290 0.0 101123
08:00+16nnw22300 0.0 101328
11:00+22ne13160 0.0 1014762
14:00+26nne43120 0.0 10132312
17:00+25nne34150 0.0 1013893
20:00+17nnw11250 0.0 101523
2 march, tue
tue223:00+15nw12240 0.0 101623
02:00+14nnw22230 0.0 101623
05:00+13n22270 0.0 101523
08:00+17n22280 0.0 101625
11:00+24nne12150 0.0 1016623
14:00+26nne22120 0.0 10132122
17:00+25ne44150 0.0 1011577
20:00+17n122414 0.0 101223